Weather History for Cape Girardeau, MO

Change the Weather History Date:

Tuesday, December 18, 2012

  Actual Average Record
Temperature  
Mean Temperature 43 °F 35 °F  
Max Temperature 55 °F 44 °F 65 °F (1962)
Min Temperature 30 °F 26 °F 5 °F (1963)
Degree Days  
Heating Degree Days 22 30  
Month to date heating degree days 294 497  
Since 1 July heating degree days 1233 1348  
Cooling Degree Days 0 0  
Month to date cooling degree days 0 0  
Year to date cooling degree days 1784 1453  
Moisture  
Dew Point 37 °F    
Average Humidity 83    
Maximum Humidity 100    
Minimum Humidity 66    
Precipitation  
Precipitation 0.00 in 0.13 in 1.98 in (2002)
Month to date precipitation 0.90 2.57  
Year to date precipitation 26.18 45.13  
Sea Level Pressure  
Sea Level Pressure 29.85 in    
Wind  
Wind Speed 7 mph (SSW)    
Max Wind Speed 21 mph    
Max Gust Speed 28 mph    
Visibility 8 miles    
Events Fog    
T = Trace of Precipitation, MM = Missing Value Source: NWS Daily Summary

Daily Weather History Graph

Daily Weather History Graph

Search for Another Location

Airport:

Trip Planner

Search our weather history database for the weather conditions in past years. The results will help you decide how hot, cold, wet, or windy it might be!

Date:

Astronomy

Dec. 18, 2012 Rise Set
Actual Time 7:07 AM CST 4:43 PM CST
Civil Twilight 6:37 AM CST 5:12 PM CST
Nautical Twilight 6:05 AM CST 5:45 PM CST
Astronomical Twilight 5:33 AM CST 6:16 PM CST
Moon 10:54 AM CST (12/18) 11:01 PM CST (12/18)
Length of Visible Light 10h 34m
Length of Day
9h 36m
Waxing Crescent, 35% of the Moon is Illuminated
Dec 18
Waxing Crescent
Dec 19
First Quarter
Dec 28
Full
Jan 4
Last Quarter
Jan 11
New

Hourly Weather History & Observations

Time (CST) Temp. Windchill Dew Point Humidity Pressure Visibility Wind Dir Wind Speed Gust Speed Precip Events Conditions
12:16 AM 39.2 °F 35.0 °F 33.8 °F 81% 29.82 in 10.0 mi WNW 5.8 mph - N/A   Scattered Clouds
12:27 AM 42.8 °F 40.1 °F 35.6 °F 76% 29.83 in 10.0 mi NW 4.6 mph - N/A   Mostly Cloudy
12:53 AM 41.0 °F 38.0 °F 36.0 °F 82% 29.84 in 10.0 mi West 4.6 mph - N/A   Overcast
1:53 AM 39.0 °F 35.7 °F 36.0 °F 89% 29.86 in 10.0 mi West 4.6 mph - N/A   Overcast
2:27 AM 37.4 °F - 35.6 °F 93% 29.85 in 10.0 mi Calm Calm - N/A   Scattered Clouds
2:53 AM 36.0 °F 33.3 °F 33.1 °F 89% 29.86 in 10.0 mi WSW 3.5 mph - N/A   Clear
3:53 AM 33.1 °F 30.0 °F 32.0 °F 96% 29.87 in 8.0 mi SW 3.5 mph - N/A   Clear
4:53 AM 32.0 °F - 30.0 °F 92% 29.87 in 9.0 mi Calm Calm - N/A   Clear
5:53 AM 30.9 °F 26.2 °F 28.9 °F 92% 29.86 in 6.0 mi East 4.6 mph - N/A   Clear
6:53 AM 30.9 °F - 30.0 °F 96% 29.87 in 7.0 mi Calm Calm - N/A   Clear
7:53 AM 34.0 °F 26.0 °F 32.0 °F 92% 29.86 in 6.0 mi SSE 10.4 mph - N/A   Clear
8:53 AM 39.9 °F 33.9 °F 36.0 °F 86% 29.88 in 10.0 mi South 9.2 mph - N/A   Clear
9:53 AM 43.0 °F 36.8 °F 37.0 °F 80% 29.89 in 9.0 mi South 11.5 mph - N/A   Clear
10:53 AM 46.9 °F - 39.0 °F 74% 29.88 in 10.0 mi SSW 9.2 mph - N/A   Clear
11:53 AM 50.0 °F - 39.0 °F 66% 29.84 in 10.0 mi South 13.8 mph - N/A   Clear
12:53 PM 52.0 °F - 41.0 °F 66% 29.81 in 10.0 mi South 15.0 mph 21.9 mph N/A   Clear
1:53 PM 54.0 °F - 42.1 °F 64% 29.79 in 10.0 mi South 13.8 mph - N/A   Clear
2:53 PM 55.0 °F - 44.1 °F 67% 29.78 in 10.0 mi SSW 20.7 mph 25.3 mph N/A   Clear
3:53 PM 54.0 °F - 43.0 °F 66% 29.79 in 10.0 mi SSW 12.7 mph - N/A   Clear
4:53 PM 52.0 °F - 44.1 °F 74% 29.80 in 10.0 mi South 11.5 mph - N/A   Clear
5:53 PM 52.0 °F - 44.1 °F 74% 29.81 in 10.0 mi SSW 11.5 mph - N/A   Clear
6:53 PM 50.0 °F - 43.0 °F 77% 29.83 in 10.0 mi SSW 6.9 mph - N/A   Clear
7:53 PM 46.0 °F 44.8 °F 41.0 °F 83% 29.86 in 10.0 mi West 3.5 mph - N/A   Clear
8:53 PM 45.0 °F - 42.1 °F 90% 29.88 in 8.0 mi Calm Calm - N/A   Clear
9:53 PM 41.0 °F - 39.9 °F 96% 29.89 in 4.0 mi Calm Calm - N/A   Clear
10:53 PM 41.0 °F - 39.0 °F 93% 29.89 in 5.0 mi Calm Calm - N/A   Clear
11:08 PM 37.4 °F - 35.6 °F 93% 29.88 in 1.2 mi Calm Calm - N/A   Clear
11:17 PM 35.6 °F - 35.6 °F 100% 29.89 in 0.5 mi Calm Calm - N/A Fog Fog
11:40 PM 37.4 °F - 35.6 °F 93% 29.89 in 0.2 mi Calm Calm - N/A Fog Fog
11:53 PM 36.0 °F - 35.1 °F 97% 29.90 in 0.2 mi Calm Calm - N/A Fog Fog